SCP
3 3 3 2 2 2 2 2 1 1 1 1 2 2 2 2 2 2 3 2 1 1 1 1 1 1 1 2 2 3 3 4 4 3 3 2 2 2
3 3 3 3 3 2 2 2 1 1 1 1 2 2 2 2 2 3 3 2 1 1 1 1 1 1 1 1 1 2 3 3 3 3 2 2 2 2
3 3 3 3 3 3 2 2 2 2 2 1 1 2 2 2 2 3 3 2 2 1 1 1 1 1 0 0 1 1 2 2 2 2 1 1 1 2
3 3 3 3 3 3 3 3 3 2 2 2 2 3 4 4 3 3 2 2 2 1 1 0 0 0 0 0 0 0 1 1 1 1 1 1 1 2
3 3 3 3 3 4 3 3 4 3 3 3 3 5 7 6 3 3 2 2 2 2 1 1 0 0 0 0 0 0 0 0 0 0 0 1 1 1
4 3 3 3 3 3 3 3 3 3 4 4 5 5 6 6 4 3 2 2 2 2 2 2 1 1 0 0 0 0 0 0 0 0 0 0 0 0
3 3 3 2 2 2 2 2 2 3 4 5 6 6 5 6 5 4 3 2 2 3 3 3 2 2 2 1 1 0 0 0 0 0 0 0 0 0
3 3 2 2 2 1 1 2 2 3 4 5 6 7 7 7 6 5 4 3 3 3 3 3 4 4 4 3 1 0 0 0 0 0 0 0 0 0
3 3 2 2 2 1 1 2 2 2 3 4 6 7 7 8 7 6 5 4 4 4 3 3 3 4 5 4 2 0 0 0 0 0 0 0 0 0
3 3 3 2 2 2 2 2 2 3 3 3 4 5 6 6 6 6 6 5 4 4 3 3 3 3 4 3 2 0 0 0 0 0 0 0 0 0
2 2 2 2 2 1 2 2 2 3 3 2 2 3 3 3 4 5 6 5 5 4 4 4 4 4 4 4 2 1 0 0 0 0 0 0 0 0
3 2 2 1 1 1 1 2 2 2 2 2 2 1 2 2 3 4 5 5 5 4 4 4 4 5 5 5 3 2 1 0 0 0 0 0 0 0
3 3 2 1 1 1 1 2 2 2 2 2 2 2 2 3 3 3 4 4 5 4 4 3 4 5 5 4 3 2 2 1 1 0 0 0 0 0
4 3 2 1 0 0 0 1 1 1 2 2 2 2 2 3 3 3 4 4 4 4 3 4 4 4 3 3 3 3 2 2 2 2 1 1 0 0
3 2 2 1 1 1 0 0 1 1 1 2 2 2 2 2 3 4 4 4 4 3 3 4 4 3 3 2 2 3 3 3 3 3 2 2 1 1
1 2 1 1 1 1 1 1 1 1 2 2 2 2 2 2 3 4 4 4 3 3 3 3 3 3 3 2 2 3 4 4 4 3 3 2 1 1
1 2 2 2 2 2 2 2 2 2 2 2 2 2 2 2 3 4 4 3 2 2 2 3 3 3 3 2 2 2 3 3 3 3 2 2 1 1
1 2 3 3 3 3 3 3 3 3 3 2 2 2 2 2 3 4 4 3 2 2 2 2 3 3 2 2 2 1 2 3 3 3 2 2 1 1
2 2 3 3 2 2 3 3 3 3 3 3 3 2 2 2 3 3 3 2 2 2 2 2 3 3 2 2 1 1 1 2 2 2 2 1 1 1
2 2 2 2 2 2 2 3 3 3 3 3 3 3 3 3 3 3 3 2 2 2 2 2 3 3 3 2 2 1 1 1 1 1 1 1 0 0
2 2 2 2 2 2 2 2 2 2 2 2 2 3 3 3 3 4 3 2 2 2 2 2 2 3 3 3 2 1 0 0 0 1 1 0 0 0
2 2 2 2 2 2 2 2 2 2 2 2 2 2 3 3 4 4 4 3 3 2 2 2 2 2 3 2 1 1 1 0 0 0 0 0 0 0
2 2 2 2 2 2 2 1 1 1 1 2 2 2 3 3 4 4 4 3 3 2 2 2 2 2 2 2 1 1 1 0 0 0 0 0 0 0
Wind_Speed
1 1 2 1 1 1 1 1 1 2 2 1 0 1 2 3 6 4 4 8 8 7 7 7 6 6 6 5 5 5 5 4 4 4 4 6 6 6
1 1 1 2 2 2 1 1 1 1 2 1 1 0 1 2 5 3 3 8 9 9 9 8 7 7 6 6 6 6 6 6 5 5 4 5 6 6
2 2 1 1 2 2 2 2 1 1 2 2 1 0 0 1 2 2 4 4 5 10 10 10 9 9 8 7 7 7 7 7 6 6 5 5 5 6
2 2 2 2 2 2 2 2 2 2 1 2 2 1 2 2 2 3 3 4 4 9 12 11 10 10 9 9 8 8 8 7 7 6 6 6 6 6
2 2 2 2 2 2 3 2 2 2 1 2 3 2 2 1 2 3 4 2 4 5 10 11 11 11 10 10 10 9 9 8 7 7 7 6 6 6
2 2 2 2 2 3 3 2 2 2 2 2 2 2 1 1 1 2 3 2 3 3 4 6 9 12 12 11 11 10 9 9 8 8 7 7 7 7
2 2 2 1 2 2 2 1 2 2 2 2 2 2 2 1 1 2 3 3 3 3 2 3 4 5 7 10 11 11 10 10 9 8 8 7 7 7
2 2 2 3 3 3 3 3 3 3 3 2 2 2 2 2 1 2 2 2 3 2 2 4 3 4 5 6 10 12 12 11 10 9 9 8 7 7
3 3 4 2 2 2 3 5 5 6 6 4 4 3 3 2 2 3 3 3 4 3 2 4 3 3 3 5 11 12 12 12 11 11 10 9 9 8
3 3 2 2 2 2 3 3 4 4 5 5 4 4 4 2 3 4 4 4 4 4 3 4 3 3 3 2 9 12 12 11 11 10 10 10 9 8
3 3 2 2 1 2 3 3 4 4 5 6 6 6 6 5 4 3 3 4 5 4 3 3 3 3 2 2 5 10 11 11 11 11 10 10 9 8
2 2 2 2 1 1 2 3 4 4 4 4 4 6 7 7 8 6 4 4 4 4 2 2 3 2 2 2 2 4 5 7 10 10 11 11 10 6
2 2 1 2 2 4 4 4 5 5 5 5 4 5 5 5 5 5 5 5 4 4 3 2 2 2 2 2 1 3 4 3 4 5 9 10 10 8
3 2 1 3 4 6 5 6 6 5 4 4 4 4 3 3 4 5 5 6 5 6 5 3 3 3 3 3 2 2 3 4 4 5 5 7 9 10
3 4 5 5 5 5 7 7 5 3 4 4 5 4 3 3 3 3 4 4 5 6 5 5 4 4 3 4 3 3 2 3 4 4 4 5 5 5
4 5 6 6 6 6 5 4 4 4 4 4 4 4 3 3 3 2 3 3 3 4 5 5 5 5 4 5 4 4 3 3 3 3 3 4 4 5
3 3 3 3 3 2 2 3 3 3 3 4 4 4 4 3 3 2 2 3 4 4 4 3 4 4 5 4 3 4 3 3 3 3 2 3 4 4
2 3 3 3 3 3 3 3 3 2 2 3 3 3 4 4 4 3 3 3 4 3 3 2 2 2 2 3 3 4 3 3 2 2 2 3 3 2
2 2 2 3 3 3 3 3 3 3 2 3 3 3 3 4 3 3 3 3 3 3 3 2 2 2 4 5 3 2 2 3 2 3 2 2 2 1
2 2 3 2 2 3 3 3 3 3 3 3 3 3 3 4 4 3 3 4 4 3 3 2 2 2 4 4 3 2 2 2 2 2 2 0 1 1
3 3 3 3 3 3 3 3 3 3 3 3 4 4 4 4 4 4 4 4 4 3 3 3 3 4 3 2 2 1 1 2 2 1 1 1 1 1
3 3 3 3 3 3 4 3 4 4 4 4 4 4 4 4 5 6 5 4 3 3 4 3 2 2 1 2 2 2 2 1 1 1 2 1 2 3
3 3 3 3 3 3 3 4 4 4 4 4 5 5 5 5 5 5 6 5 4 4 3 3 2 1 2 2 2 2 2 2 1 1 1 3 1 2
Wind_Direction
268 281 282 294 291 290 298 294 280 284 282 256 259 145 135 126 156 176 165 180 185 194 199 198 201 205 206 211 215 222 222 224 226 228 230 229 226 228
239 293 314 315 317 314 308 295 293 265 283 300 295 163 127 148 167 173 167 177 194 198 202 204 203 206 209 213 217 221 223 226 227 226 227 228 222 219
267 257 257 294 322 314 312 303 283 282 277 294 301 304 158 147 153 195 186 189 195 201 204 204 207 207 209 213 215 217 218 222 224 223 222 224 222 217
257 274 282 268 263 280 289 288 289 274 255 276 286 270 246 216 186 228 225 209 203 202 205 207 209 209 209 212 216 217 217 218 221 223 223 224 223 221
256 251 263 273 271 272 270 277 286 294 270 258 260 243 236 228 213 249 254 252 233 206 201 210 214 212 211 212 215 216 217 217 216 216 220 223 223 222
261 250 253 258 265 274 268 269 278 294 286 273 276 267 245 225 224 249 260 249 255 241 211 208 215 215 214 214 215 216 217 217 216 215 217 220 221 223
260 250 233 223 226 258 279 285 288 281 279 273 271 285 273 264 252 265 269 263 252 246 226 221 209 214 213 217 219 218 216 215 215 215 214 216 217 219
272 270 240 208 215 232 248 246 239 253 265 271 269 270 266 264 265 269 277 280 274 252 238 252 219 220 212 205 207 208 210 211 211 211 211 215 218 219
271 272 275 267 226 252 247 241 239 239 235 247 266 274 270 260 270 278 277 279 273 271 263 271 253 234 226 206 193 200 204 205 207 207 207 212 217 219
275 273 266 298 300 309 287 270 256 249 242 235 247 267 277 277 260 260 261 264 263 258 236 256 264 257 249 199 192 193 200 205 207 208 208 210 214 219
251 259 251 248 272 308 291 286 283 278 265 256 243 247 255 261 264 274 271 270 271 262 227 234 256 264 245 215 199 200 205 205 206 208 211 212 211 213
254 237 224 221 223 252 264 279 278 283 293 288 269 253 248 245 239 233 244 255 268 268 236 222 248 255 267 227 192 195 208 213 213 215 214 213 207 205
277 266 236 202 233 250 252 258 266 280 284 277 264 251 240 237 228 221 225 233 247 257 258 241 255 253 248 260 233 206 197 194 198 214 217 216 210 205
299 304 267 238 256 258 254 263 275 285 279 277 274 267 254 246 241 228 225 228 229 241 252 251 253 255 262 267 256 222 214 197 192 199 200 203 212 217
294 306 297 271 274 258 249 255 261 260 268 273 274 275 271 265 258 245 232 229 234 242 247 245 244 251 249 254 257 236 227 217 204 200 192 190 197 198
283 287 276 259 257 262 263 249 238 247 256 265 274 277 280 278 268 255 255 250 248 249 243 240 240 242 250 258 256 257 237 217 205 203 202 206 202 200
286 277 275 279 272 267 260 250 247 248 255 268 277 285 285 280 277 271 263 259 257 262 261 246 236 235 239 248 257 254 243 241 221 207 207 220 219 210
266 274 280 281 282 288 290 282 269 264 268 276 278 281 286 287 286 283 278 266 263 264 267 270 266 263 265 261 235 252 250 246 234 226 219 220 235 224
261 274 290 300 305 306 305 306 305 304 296 288 283 286 291 295 297 293 287 282 277 272 270 269 256 245 256 267 271 234 253 256 232 221 210 214 225 210
294 301 304 309 317 323 324 325 324 323 330 321 313 313 306 301 301 300 292 287 286 285 283 279 258 246 249 260 273 287 269 261 240 226 223 196 103 112
341 340 339 338 340 343 337 335 333 332 332 325 324 323 314 306 299 294 289 287 277 276 277 276 260 247 251 244 259 283 314 303 279 238 205 185 196 202
337 339 341 341 347 352 347 343 341 341 341 334 330 327 318 312 305 298 295 293 279 271 272 274 270 251 238 234 248 255 277 304 338 17 3 256 198 202
343 342 342 343 344 339 335 333 337 339 335 328 323 319 316 310 302 298 295 292 289 281 278 277 280 270 253 242 239 238 243 263 260 215 328 329 257 194